Temperature
21 21 21 22 16 12 9 9 10 9 8 8 8 8 7 6 6 4 5 6 7 8 9 10 10 10 10 10 10 10 10 10 10 10 10 10 11 11 11 11 12 12 12 13 13 13 13 14 14
21 21 21 18 13 11 10 9 9 8 8 8 8 8 7 7 6 5 5 6 7 8 9 9 9 10 10 10 10 9 9 9 9 8 8 8 9 9 10 10 11 11 11 11 12 12 13 13 13
21 21 18 10 9 9 9 8 8 8 8 8 7 7 6 5 5 5 5 6 7 8 9 9 9 9 9 9 8 8 7 7 7 7 6 6 7 7 7 8 9 9 10 10 9 10 11 12 13
21 20 13 10 7 7 8 8 9 8 9 8 7 5 4 4 4 5 5 6 8 9 9 9 9 8 8 7 7 6 6 5 5 5 4 5 5 6 5 6 6 7 7 8 7 8 9 11 12
21 16 10 8 8 8 8 8 9 8 7 7 6 4 3 4 4 5 6 7 8 9 9 9 8 7 7 6 6 6 5 5 4 4 4 4 5 5 4 5 5 5 6 6 6 7 8 8 10
20 13 10 8 8 8 8 8 8 7 7 7 6 4 3 3 5 5 6 7 8 8 8 8 7 7 6 6 5 5 4 4 4 4 4 4 4 4 4 4 4 4 4 4 5 6 7 7 8
16 10 8 8 8 8 8 8 7 7 6 6 6 4 3 4 5 5 6 7 8 8 7 7 6 6 5 5 4 4 3 3 3 3 3 3 4 4 3 4 3 3 3 3 4 4 5 6 7
17 11 9 9 9 8 8 8 7 7 6 6 6 4 4 4 5 5 6 7 7 7 6 5 5 5 4 4 4 3 3 2 3 3 3 3 3 3 3 3 3 3 3 3 3 3 4 5 6
18 11 10 10 9 8 8 7 6 6 7 6 6 5 5 5 5 6 6 7 6 6 5 5 4 4 4 3 3 3 3 2 2 3 3 3 3 3 3 2 2 2 2 2 3 3 3 4 4
15 9 10 10 9 7 8 7 6 6 5 5 5 5 5 5 5 6 7 6 5 4 4 4 4 4 3 3 3 3 3 2 2 2 2 2 2 2 2 2 2 2 2 2 2 2 2 3 3
10 8 8 9 9 9 7 7 6 6 5 5 5 5 5 5 6 6 5 4 3 3 3 4 3 3 3 3 2 2 2 2 2 1 1 1 1 1 1 1 1 1 1 1 2 2 2 2 2
9 8 9 9 9 9 7 7 7 7 7 7 6 6 6 6 6 5 4 3 3 3 3 3 3 3 2 2 2 1 1 1 0 0 -0 -0 -0 -0 -0 -0 -0 -0 -0 -0 -0 0 1 1 1
8 8 8 9 10 8 8 7 7 7 7 6 6 6 6 5 5 4 3 3 3 3 3 3 2 2 1 1 1 0 0 -0 -0 -1 -1 -1 -1 -2 -2 -2 -2 -2 -2 -2 -1 -1 -1 -0 0
8 8 8 9 9 8 7 6 6 6 6 6 6 5 5 5 4 3 3 2 2 3 2 2 1 1 1 0 0 -0 -1 -1 -1 -1 -2 -2 -2 -3 -3 -3 -4 -4 -4 -4 -3 -3 -3 -2 -1
10 8 8 8 8 7 7 6 6 6 6 5 5 5 5 4 4 3 2 2 2 2 2 1 1 0 0 -0 -1 -1 -1 -2 -2 -2 -3 -3 -4 -4 -4 -5 -5 -5 -5 -5 -5 -4 -4 -3 -3
10 9 10 9 8 7 7 8 6 6 5 5 5 4 4 4 3 2 2 2 2 1 1 0 -0 -0 -0 -1 -1 -1 -2 -2 -3 -4 -4 -5 -5 -6 -6 -6 -6 -6 -6 -6 -6 -6 -5 -5 -4
10 11 11 9 8 7 7 7 6 6 5 5 5 4 4 4 3 3 2 2 1 0 -0 -0 -0 -0 -1 -1 -1 -2 -2 -3 -4 -4 -5 -6 -6 -7 -7 -7 -7 -8 -8 -8 -8 -7 -7 -7 -6
13 12 12 10 8 7 6 6 6 5 5 5 5 4 4 4 3 3 2 1 -0 -1 -1 -1 -1 -1 -1 -1 -2 -2 -3 -4 -5 -5 -6 -6 -7 -7 -8 -8 -8 -9 -9 -9 -9 -9 -8 -8 -8
13 12 12 11 8 7 6 6 5 5 4 4 4 4 4 4 3 2 1 0 -1 -1 -1 -1 -1 -1 -2 -2 -3 -3 -3 -4 -5 -6 -7 -7 -8 -8 -9 -9 -9 -10 -10 -10 -10 -10 -10 -9 -9
12 12 12 10 8 8 6 5 4 4 4 4 5 5 4 4 3 2 1 -0 -1 -1 -1 -1 -2 -2 -3 -3 -4 -5 -5 -5 -6 -7 -7 -8 -8 -9 -9 -10 -10 -11 -11 -11 -11 -11 -11 -11 -11
13 13 12 11 8 7 7 7 5 4 4 4 5 5 4 4 3 1 0 -1 -1 -1 -1 -2 -2 -3 -3 -4 -5 -5 -5 -6 -7 -8 -8 -9 -9 -10 -10 -11 -11 -12 -12 -12 -12 -12 -12 -13 -12
13 13 12 10 9 7 8 8 7 3 3 3 4 4 4 3 2 1 -0 -1 -1 -1 -2 -2 -3 -3 -4 -5 -5 -6 -7 -8 -8 -9 -9 -9 -10 -10 -11 -12 -12 -13 -13 -13 -13 -14 -13 -13 -13
12 12 11 9 9 8 7 7 7 3 3 2 3 4 4 3 1 1 -0 -1 -1 -2 -2 -3 -3 -4 -5 -5 -6 -7 -8 -9 -9 -9 -9 -10 -10 -11 -12 -12 -13 -13 -14 -14 -14 -14 -14 -14 -14
11 10 9 7 7 9 8 7 8 4 3 3 3 4 4 2 1 1 -0 -1 -2 -2 -2 -3 -3 -4 -5 -6 -7 -8 -9 -9 -9 -9 -10 -11 -12 -12 -13 -13 -14 -14 -14 -14 -14 -14 -14 -14 -14
11 11 10 11 10 10 8 8 8 7 3 4 4 4 4 2 1 0 -0 -1 -2 -2 -2 -3 -4 -5 -5 -6 -7 -8 -8 -9 -9 -10 -11 -12 -13 -13 -13 -14 -14 -14 -14 -14 -14 -14 -14 -14 -14
11 12 12 12 10 8 8 7 7 5 4 4 4 4 3 2 1 0 -1 -2 -2 -2 -3 -4 -4 -5 -6 -7 -7 -8 -8 -9 -10 -11 -12 -13 -13 -13 -13 -13 -13 -14 -14 -14 -14 -14 -14 -14 -14
11 8 9 8 8 7 7 7 6 4 3 2 3 3 2 1 0 -1 -1 -2 -2 -3 -4 -4 -5 -5 -6 -7 -7 -7 -8 -9 -11 -12 -13 -13 -13 -13 -13 -13 -13 -13 -13 -13 -14 -14 -14 -13 -13
9 7 6 8 10 9 8 7 8 7 3 1 1 1 2 1 -0 -1 -1 -2 -2 -4 -4 -5 -5 -6 -6 -7 -7 -8 -9 -10 -11 -12 -13 -13 -13 -13 -13 -12 -13 -13 -13 -13 -13 -13 -13 -13 -12
9 9 7 6 7 8 7 9 8 7 5 2 2 2 2 1 -0 -1 -1 -2 -3 -4 -5 -5 -5 -6 -6 -7 -7 -8 -9 -10 -12 -12 -13 -13 -13 -13 -12 -12 -12 -12 -12 -12 -12 -12 -12 -12 -11
10 9 7 9 8 6 5 8 8 5 5 4 4 3 2 0 -1 -1 -1 -2 -3 -4 -5 -5 -6 -6 -6 -7 -8 -9 -10 -11 -12 -12 -13 -13 -13 -12 -12 -12 -12 -12 -12 -11 -11 -11 -11 -11 -11
Wind_Speed
7 6 4 5 8 10 7 5 4 5 5 2 3 8 9 7 7 7 0 14 19 20 23 25 28 29 29 29 29 29 29 29 29 29 29 29 30 30 30 30 30 30 29 29 29 29 29 28 28
6 6 8 7 7 7 5 5 6 4 6 5 4 6 7 8 5 5 6 12 17 19 22 25 28 28 28 29 29 29 30 29 29 29 28 28 29 30 30 31 30 30 29 29 28 28 29 29 29
7 9 7 7 7 5 5 4 5 5 5 3 5 7 6 5 5 4 7 12 14 19 23 25 28 28 27 28 28 28 28 28 28 28 28 28 29 29 29 30 31 30 30 29 28 28 28 29 29
6 7 8 10 11 5 3 1 3 7 5 7 6 6 5 6 4 5 6 9 12 19 23 25 27 27 26 26 27 27 27 27 27 27 27 28 29 29 29 30 30 30 30 29 29 29 28 28 29
6 7 9 8 6 4 5 5 3 5 4 6 6 6 4 4 6 5 4 8 12 17 22 25 27 27 26 26 28 28 28 27 27 27 27 27 28 29 28 29 29 29 29 29 30 30 29 28 28
6 7 8 6 6 4 3 4 4 6 5 6 7 6 3 2 2 3 5 10 15 17 21 24 27 27 26 26 27 28 27 27 26 27 27 28 29 29 28 29 29 28 28 28 29 30 30 29 28
6 7 7 8 7 5 3 4 5 5 5 3 6 6 5 2 2 2 6 10 14 18 21 24 25 24 24 24 25 27 26 26 25 26 27 27 28 29 28 29 29 28 28 28 29 29 29 29 28
6 7 7 6 7 5 4 4 4 3 4 3 4 8 6 5 4 2 4 7 11 16 18 21 23 22 23 22 24 26 25 25 24 24 25 26 26 27 27 28 28 28 28 28 29 29 29 29 28
5 7 5 6 8 7 6 5 3 3 6 5 4 4 6 7 4 1 1 6 8 11 13 19 20 21 22 20 20 22 21 22 21 21 23 22 21 22 23 26 27 27 27 28 28 28 28 28 26
7 6 5 2 8 8 6 6 8 5 6 4 4 4 5 5 3 3 8 10 10 10 9 15 18 20 20 18 17 20 18 20 20 20 22 21 20 20 21 23 25 26 27 27 27 27 25 23 21
8 7 5 5 6 8 6 6 6 9 4 7 8 8 6 5 4 7 7 7 7 7 7 10 16 17 19 18 16 18 18 18 18 20 21 21 19 19 19 18 19 21 23 22 23 22 20 20 20
8 7 6 5 5 6 6 6 5 2 4 7 9 8 7 6 6 6 6 5 5 6 7 9 15 18 19 18 17 17 17 16 16 17 19 19 16 17 18 16 17 17 18 19 19 18 20 20 21
7 5 5 8 11 7 7 6 5 3 5 8 8 7 7 7 6 5 5 4 5 6 8 9 13 18 18 18 17 16 17 16 17 17 18 19 16 15 16 16 16 17 18 18 18 18 19 19 19
7 8 7 7 7 4 7 4 5 4 6 7 7 6 6 6 5 4 3 3 4 6 8 12 11 17 17 16 16 15 17 17 17 17 19 19 18 17 17 15 15 16 18 18 18 18 16 16 16
6 8 7 4 4 4 6 3 6 8 8 8 7 6 5 5 5 4 2 1 4 6 7 9 11 15 15 15 15 16 16 16 16 16 18 19 19 18 17 14 14 17 19 19 18 16 15 13 13
6 6 3 1 4 4 3 6 6 9 10 9 8 7 6 5 4 4 3 1 6 6 6 8 11 12 14 14 16 16 17 17 16 17 17 18 18 19 17 14 13 18 18 17 14 9 11 11 12
4 2 2 3 5 5 5 7 5 9 10 10 9 8 7 5 5 4 3 3 5 5 6 6 10 11 13 15 16 16 16 16 16 17 16 17 18 19 18 14 14 18 15 14 13 9 11 12 13
3 3 2 4 6 7 7 8 5 9 11 10 9 8 8 8 7 4 2 3 2 4 5 5 8 10 13 13 13 12 12 14 15 16 17 19 18 19 18 14 15 17 12 7 9 10 10 10 12
3 4 2 2 6 7 10 10 7 9 9 10 9 9 9 8 5 4 2 1 3 4 6 6 7 8 10 7 7 7 8 6 11 14 18 19 19 19 18 14 15 15 8 9 10 10 11 10 10
5 3 2 1 4 5 6 9 6 8 9 9 10 11 10 7 5 5 4 2 3 5 6 7 8 7 10 8 8 7 7 6 11 15 17 18 19 19 18 16 15 14 9 9 9 10 9 10 8
2 2 3 3 2 2 4 8 4 5 6 6 8 8 8 9 8 6 4 3 2 5 6 8 8 8 11 13 11 11 5 4 5 7 8 17 20 20 19 18 17 15 10 8 9 9 9 11 9
1 2 2 3 1 4 2 7 6 5 6 8 9 8 9 7 7 4 2 1 3 4 6 6 7 8 11 13 8 9 10 9 9 7 9 18 19 19 19 19 18 16 13 9 10 8 9 10 10
2 2 1 3 2 4 1 2 7 1 7 11 10 10 9 8 7 4 2 3 4 5 6 6 7 7 10 12 8 8 8 7 9 8 9 9 15 18 19 20 18 16 14 11 9 11 9 8 9
1 4 5 5 4 3 3 4 8 5 8 8 9 10 10 8 6 3 3 4 4 4 5 6 8 8 8 9 8 9 9 10 12 13 10 10 9 13 16 20 18 18 15 13 12 10 10 9 10
5 4 6 6 4 5 2 3 10 6 7 6 8 11 9 8 6 3 2 3 4 6 7 8 9 9 9 9 9 9 9 9 11 13 12 13 11 11 11 18 16 17 17 18 16 10 10 9 10
3 3 4 3 5 7 3 7 8 1 0 1 4 7 8 8 5 4 3 1 3 6 7 8 9 9 9 9 9 8 8 7 8 10 11 12 11 11 18 19 20 21 20 19 15 12 12 9 9
3 3 2 5 2 5 7 9 8 3 1 2 5 7 9 8 7 6 3 1 4 6 6 8 8 9 9 9 10 8 7 8 10 10 10 9 12 16 20 21 20 21 21 19 14 12 11 10 10
3 8 5 3 2 6 8 7 6 8 9 8 8 9 9 8 7 6 3 1 3 4 6 8 8 8 9 9 9 11 9 11 12 11 12 11 15 18 18 18 19 19 19 17 13 11 10 10 10
4 4 4 4 3 3 6 9 7 8 8 12 13 11 10 9 8 6 3 1 3 5 6 7 8 8 8 8 8 9 9 11 12 10 11 13 14 17 16 17 18 19 19 15 10 9 9 9 9
5 7 7 3 4 4 4 9 4 5 5 8 10 9 9 9 8 6 3 2 4 6 7 7 7 8 8 8 8 9 10 10 11 11 12 15 14 16 17 17 17 18 18 14 11 10 9 8 9
Wind_Direction
16 46 55 53 61 61 61 33 75 85 77 39 40 85 96 73 85 125 205 14 2 358 358 4 14 15 16 16 16 15 15 15 14 14 13 13 11 10 10 8 5 3 2 360 359 357 356 354 353
39 53 48 54 74 76 44 21 56 69 131 142 73 68 68 67 75 83 21 6 4 4 5 6 15 15 16 16 16 15 14 14 14 13 13 13 10 8 7 5 3 1 359 358 357 355 353 352 350
64 54 60 59 68 87 93 51 90 87 111 118 74 54 63 32 37 52 15 2 7 15 14 9 16 16 16 16 16 15 14 14 13 12 12 11 9 7 6 3 1 359 357 355 355 353 351 348 347
69 55 61 62 70 36 71 132 136 123 73 54 79 55 53 9 36 46 18 10 18 23 19 13 17 16 15 16 16 15 14 13 13 12 12 10 7 5 4 2 359 357 355 354 353 350 348 346 344
60 74 69 64 64 45 21 14 51 72 57 49 80 88 70 15 25 39 20 26 31 28 24 18 18 16 14 14 15 13 13 12 12 11 11 9 6 3 2 0 357 356 354 353 351 348 346 344 343
61 68 80 94 108 119 55 27 69 72 87 92 95 103 101 35 36 13 23 38 40 33 28 23 19 16 14 13 14 12 12 12 12 11 9 7 5 2 1 359 355 354 353 352 349 347 344 343 342
84 76 93 120 129 128 116 60 62 84 88 96 120 112 148 166 165 67 35 41 45 40 32 24 19 16 13 12 12 11 12 12 12 10 8 7 4 1 359 357 353 353 351 351 348 347 345 343 342
100 94 92 114 127 127 130 94 82 81 110 36 93 135 169 186 160 116 44 36 42 40 35 24 20 17 11 10 12 11 11 11 12 9 7 6 3 359 356 353 351 351 350 349 346 346 346 344 342
75 72 99 146 149 148 144 117 92 62 89 46 56 130 153 139 137 136 15 32 31 26 28 24 18 19 15 12 13 10 10 9 10 7 6 4 1 355 354 349 349 350 348 348 345 344 345 345 341
54 96 126 142 147 140 128 128 148 114 82 68 53 77 106 108 128 83 46 31 19 5 7 23 19 19 18 14 10 10 5 2 2 2 3 360 356 353 352 348 349 349 347 346 343 343 344 342 337
59 101 109 70 101 108 109 118 133 126 141 177 176 172 154 133 100 72 58 43 14 347 350 13 21 21 19 12 7 9 1 358 358 358 360 356 351 348 346 342 345 346 346 344 341 340 339 335 333
83 62 87 103 86 90 108 111 109 156 188 170 165 155 152 126 95 81 66 39 3 351 349 5 22 19 15 11 3 6 359 354 353 351 356 354 348 344 342 337 336 342 343 339 337 333 331 331 327
74 89 59 80 82 84 87 90 108 95 106 118 131 133 136 123 108 92 80 39 3 357 354 360 21 17 8 5 359 356 351 349 347 348 352 353 347 341 338 333 332 336 339 337 334 331 329 330 325
90 89 89 72 76 77 104 104 110 166 146 138 146 146 142 142 141 115 71 9 353 3 360 354 14 14 3 356 347 345 343 343 345 348 349 351 346 340 338 332 333 338 338 334 331 323 327 326 322
98 85 74 81 87 111 116 154 203 179 158 163 170 165 159 147 136 127 154 241 23 10 354 350 5 5 355 348 343 341 336 338 339 342 344 346 344 340 338 332 335 338 336 333 330 322 329 324 323
78 83 89 155 120 140 147 259 197 161 162 182 191 191 180 157 147 151 181 118 39 1 339 341 355 352 348 345 341 337 334 334 334 337 339 341 341 339 338 330 332 335 334 333 329 329 331 324 323
58 106 193 193 183 163 194 249 191 168 176 193 201 202 195 180 178 174 164 79 32 340 320 326 338 344 344 342 340 336 332 330 331 334 335 337 337 337 334 323 329 331 329 329 329 332 326 324 324
191 198 218 227 200 178 218 248 202 181 189 201 205 207 206 204 202 183 150 86 0 324 318 320 334 341 343 343 340 334 330 329 332 333 334 335 334 333 330 320 328 327 323 322 321 321 321 320 321
135 157 224 246 168 186 226 248 221 188 193 202 209 212 213 213 199 179 161 142 309 315 333 336 342 340 347 345 343 334 332 324 326 333 332 328 329 329 325 321 323 320 316 316 315 319 319 321 325
113 132 201 205 163 212 256 262 228 189 202 202 204 208 206 200 198 216 210 220 297 321 337 343 343 334 341 339 328 318 316 311 321 325 323 327 329 326 326 323 318 314 309 311 313 316 314 321 331
118 174 231 227 130 51 320 300 209 206 199 202 206 203 195 197 207 221 223 243 311 338 338 339 332 331 335 336 333 333 313 302 322 325 317 327 326 323 319 316 315 311 306 305 305 302 311 316 313
237 238 190 152 116 303 347 304 276 216 222 220 209 195 195 198 198 204 212 307 352 340 332 328 329 330 333 336 335 337 343 336 329 323 319 324 325 322 321 319 314 310 309 301 300 315 304 303 307
257 356 132 144 170 320 320 232 292 148 250 238 215 200 198 198 197 191 139 40 13 345 331 331 335 330 331 333 329 326 319 309 317 319 317 319 325 324 323 322 316 312 310 300 294 297 291 293 291
360 73 65 64 71 313 238 191 283 223 226 244 207 195 195 191 184 145 87 45 355 336 338 346 344 332 327 328 322 319 314 317 326 330 328 329 325 323 320 321 315 310 306 300 296 289 285 287 283
57 65 9 353 353 276 175 228 253 256 223 229 207 193 183 179 167 144 70 9 336 344 356 351 340 328 324 322 319 316 313 316 323 328 329 329 328 325 317 315 311 307 301 299 295 290 287 280 276
41 91 119 280 280 298 287 247 258 269 282 239 182 165 161 168 159 144 117 5 340 357 353 341 330 324 322 322 321 313 319 327 326 323 323 321 320 317 313 315 312 306 301 298 294 290 284 280 276
95 92 127 146 301 287 282 282 299 151 223 158 155 157 172 174 163 150 137 49 7 356 339 328 323 321 319 321 323 327 334 329 325 321 319 316 316 318 320 316 313 310 306 300 292 283 279 280 279
70 141 99 113 315 297 294 286 268 254 237 217 206 195 188 173 160 152 153 41 5 342 324 322 319 315 312 319 329 344 331 326 324 323 320 319 318 319 319 320 320 320 319 315 302 287 279 279 281
129 117 112 114 162 212 292 279 227 229 224 216 212 195 184 176 167 164 167 53 354 332 323 318 316 313 315 322 326 328 325 325 325 323 320 321 321 324 325 327 328 330 332 332 325 312 295 289 289
174 177 156 172 223 203 233 270 256 217 234 217 203 179 172 164 158 160 144 41 339 322 317 314 313 313 315 321 327 327 325 325 325 324 323 325 325 328 331 333 334 338 343 346 348 343 340 330 326
Height
1534 1535 1537 1538 1547 1572 1597 1603 1601 1606 1609 1612 1612 1612 1615 1620 1624 1634 1631 1626 1623 1620 1616 1613 1609 1605 1601 1598 1594 1590 1587 1583 1580 1577 1575 1572 1570 1567 1564 1561 1559 1557 1555 1553 1551 1549 1547 1545 1544
1535 1537 1539 1542 1564 1591 1604 1605 1605 1608 1610 1612 1613 1615 1617 1622 1626 1628 1627 1625 1623 1620 1616 1612 1609 1605 1601 1597 1593 1589 1586 1582 1579 1575 1572 1569 1567 1564 1561 1559 1556 1553 1551 1549 1547 1545 1544 1542 1540
1538 1539 1543 1558 1587 1602 1607 1609 1609 1610 1612 1613 1615 1618 1620 1625 1628 1628 1627 1625 1623 1620 1616 1612 1608 1604 1600 1596 1592 1588 1584 1580 1576 1573 1570 1567 1564 1561 1558 1555 1552 1550 1547 1545 1543 1541 1539 1538 1536
1541 1543 1555 1578 1602 1609 1608 1610 1610 1611 1612 1614 1616 1621 1625 1628 1628 1629 1627 1625 1622 1619 1615 1611 1607 1602 1598 1594 1589 1585 1581 1578 1574 1571 1568 1565 1562 1559 1556 1552 1549 1546 1544 1541 1538 1536 1534 1533 1531
1542 1547 1572 1597 1608 1610 1610 1609 1610 1611 1614 1617 1618 1624 1628 1629 1629 1628 1626 1624 1621 1617 1613 1609 1604 1600 1596 1592 1588 1584 1580 1576 1572 1569 1565 1562 1559 1556 1553 1550 1547 1543 1541 1537 1534 1532 1530 1527 1525
1545 1554 1584 1607 1612 1613 1613 1612 1612 1614 1617 1619 1621 1625 1629 1629 1629 1627 1626 1623 1620 1615 1611 1607 1603 1598 1594 1590 1586 1581 1577 1574 1570 1567 1564 1560 1557 1554 1550 1546 1543 1540 1537 1534 1531 1528 1525 1522 1520
1549 1567 1594 1605 1610 1612 1614 1613 1614 1616 1618 1620 1621 1625 1628 1629 1628 1627 1625 1622 1618 1614 1610 1605 1600 1595 1591 1587 1583 1579 1575 1571 1568 1565 1562 1558 1555 1552 1548 1544 1540 1536 1533 1530 1527 1524 1521 1517 1515
1554 1569 1593 1602 1607 1611 1613 1614 1616 1617 1619 1620 1622 1623 1627 1628 1628 1626 1624 1621 1617 1612 1607 1602 1598 1593 1589 1585 1581 1577 1573 1569 1565 1562 1559 1556 1553 1550 1546 1541 1537 1533 1529 1525 1522 1519 1516 1513 1511
1558 1576 1594 1598 1602 1608 1610 1612 1615 1616 1618 1619 1621 1623 1625 1627 1626 1625 1623 1619 1615 1610 1604 1600 1595 1591 1587 1583 1579 1575 1571 1567 1563 1560 1556 1552 1549 1546 1542 1538 1534 1530 1526 1521 1518 1514 1510 1507 1505
1563 1586 1594 1596 1597 1602 1607 1610 1613 1616 1618 1621 1622 1623 1624 1625 1625 1623 1620 1616 1612 1607 1602 1598 1594 1590 1586 1582 1578 1574 1570 1566 1562 1558 1555 1551 1547 1542 1538 1535 1531 1527 1523 1518 1514 1510 1505 1502 1499
1575 1590 1595 1597 1599 1602 1606 1611 1613 1615 1618 1619 1620 1621 1623 1623 1623 1621 1618 1615 1611 1606 1602 1597 1593 1589 1586 1582 1578 1574 1570 1566 1561 1556 1552 1548 1544 1540 1535 1530 1525 1521 1518 1514 1510 1505 1501 1497 1493
1583 1593 1595 1600 1602 1604 1608 1611 1614 1615 1616 1618 1619 1620 1621 1622 1621 1619 1617 1614 1610 1606 1602 1598 1594 1590 1586 1582 1577 1573 1568 1563 1558 1553 1548 1543 1539 1535 1531 1526 1521 1517 1512 1508 1504 1501 1496 1493 1489
1588 1596 1599 1601 1603 1606 1609 1612 1614 1615 1616 1617 1619 1620 1620 1620 1619 1618 1616 1613 1609 1605 1601 1598 1594 1590 1586 1581 1576 1571 1566 1561 1556 1551 1545 1540 1535 1530 1525 1521 1517 1513 1508 1504 1499 1495 1491 1488 1484
1593 1597 1601 1604 1606 1608 1610 1613 1613 1615 1615 1617 1618 1619 1619 1619 1618 1616 1614 1611 1607 1604 1600 1597 1593 1589 1584 1579 1574 1569 1564 1559 1554 1548 1543 1538 1533 1527 1522 1517 1512 1508 1503 1499 1495 1490 1486 1482 1479
1596 1600 1605 1607 1607 1610 1611 1613 1612 1612 1614 1616 1617 1618 1618 1617 1616 1615 1612 1609 1607 1603 1599 1595 1591 1587 1582 1577 1572 1567 1561 1556 1550 1545 1539 1534 1529 1524 1518 1513 1508 1503 1499 1494 1490 1486 1481 1477 1473
1598 1603 1606 1608 1608 1609 1614 1610 1608 1610 1612 1614 1615 1616 1616 1616 1615 1613 1611 1609 1606 1601 1597 1594 1589 1585 1580 1575 1570 1565 1559 1553 1548 1542 1536 1531 1525 1520 1515 1510 1505 1500 1495 1490 1486 1481 1476 1471 1467
1601 1604 1604 1607 1607 1608 1610 1607 1606 1608 1610 1611 1613 1613 1614 1614 1613 1612 1610 1608 1604 1599 1596 1592 1587 1583 1578 1573 1567 1562 1556 1550 1545 1539 1533 1527 1522 1517 1511 1506 1501 1496 1491 1487 1482 1477 1472 1466 1461
1598 1601 1602 1604 1605 1607 1608 1605 1604 1606 1607 1608 1610 1611 1611 1611 1611 1610 1609 1606 1602 1598 1594 1590 1586 1581 1575 1570 1564 1559 1553 1547 1542 1536 1530 1524 1519 1513 1508 1502 1498 1493 1487 1483 1478 1473 1469 1464 1458
1593 1598 1600 1600 1601 1604 1605 1602 1601 1602 1604 1605 1606 1607 1608 1609 1609 1608 1607 1604 1600 1597 1593 1589 1584 1578 1572 1566 1559 1553 1547 1542 1537 1532 1527 1521 1515 1509 1503 1498 1493 1488 1483 1479 1474 1470 1464 1460 1455
1595 1597 1598 1600 1601 1602 1603 1600 1598 1599 1599 1600 1601 1603 1604 1606 1606 1606 1604 1602 1598 1595 1591 1587 1582 1576 1570 1564 1557 1551 1545 1539 1533 1528 1523 1517 1511 1505 1499 1494 1488 1484 1479 1474 1470 1466 1461 1457 1454
1595 1595 1595 1598 1602 1604 1602 1596 1596 1596 1597 1598 1599 1600 1601 1603 1604 1604 1602 1600 1596 1593 1588 1584 1579 1574 1568 1561 1554 1548 1541 1534 1528 1521 1516 1512 1506 1501 1495 1489 1484 1479 1474 1469 1465 1462 1458 1453 1450
1594 1593 1594 1598 1604 1607 1604 1605 1590 1595 1596 1594 1594 1596 1598 1600 1601 1601 1599 1597 1594 1590 1586 1582 1578 1572 1566 1559 1552 1544 1537 1530 1524 1518 1512 1507 1502 1496 1490 1484 1479 1474 1469 1464 1461 1457 1454 1449 1445
1595 1594 1596 1599 1603 1607 1608 1610 1594 1597 1595 1590 1590 1592 1595 1597 1599 1598 1597 1594 1591 1588 1584 1580 1576 1570 1563 1556 1550 1543 1536 1529 1522 1515 1509 1502 1497 1491 1486 1480 1474 1469 1464 1459 1455 1451 1448 1445 1441
1595 1598 1601 1606 1609 1609 1604 1609 1595 1596 1588 1584 1585 1588 1591 1594 1596 1595 1594 1592 1589 1586 1583 1578 1573 1567 1560 1554 1547 1541 1533 1526 1519 1512 1505 1498 1492 1487 1482 1476 1470 1465 1459 1454 1449 1445 1442 1439 1436
1597 1602 1607 1604 1607 1605 1604 1603 1591 1582 1582 1581 1582 1583 1588 1591 1593 1593 1592 1589 1587 1584 1580 1575 1569 1563 1558 1551 1545 1538 1531 1524 1517 1510 1503 1496 1489 1483 1477 1472 1466 1460 1454 1448 1443 1439 1435 1432 1430
1600 1600 1610 1612 1615 1611 1604 1601 1584 1581 1580 1580 1580 1582 1586 1588 1590 1590 1589 1587 1585 1582 1577 1572 1566 1561 1555 1548 1542 1536 1529 1523 1516 1510 1503 1496 1489 1482 1476 1469 1462 1455 1448 1442 1436 1432 1429 1426 1424
1602 1609 1608 1616 1618 1619 1606 1594 1581 1580 1580 1579 1579 1580 1583 1585 1587 1587 1586 1584 1582 1579 1574 1569 1564 1559 1553 1546 1540 1534 1527 1521 1515 1508 1502 1496 1489 1482 1475 1467 1458 1449 1442 1435 1429 1425 1422 1420 1419
1602 1608 1615 1616 1614 1615 1605 1597 1585 1574 1576 1577 1577 1577 1580 1582 1583 1584 1583 1582 1580 1576 1572 1567 1562 1557 1551 1545 1538 1532 1526 1520 1513 1507 1501 1494 1488 1481 1473 1464 1455 1446 1438 1430 1424 1420 1418 1417 1415
1604 1607 1612 1620 1617 1618 1617 1591 1571 1568 1568 1569 1569 1572 1576 1579 1580 1581 1580 1579 1577 1573 1569 1565 1560 1555 1549 1543 1537 1531 1524 1518 1512 1506 1499 1493 1487 1480 1472 1464 1455 1446 1438 1430 1424 1420 1417 1416 1414
1598 1601 1609 1611 1613 1620 1621 1591 1565 1564 1564 1564 1565 1568 1572 1575 1577 1577 1577 1576 1574 1570 1567 1563 1558 1553 1547 1541 1535 1530 1523 1517 1510 1504 1498 1492 1486 1479 1472 1465 1457 1449 1442 1435 1429 1424 1421 1418 1415